EW3770 Weather Reports


Display with metric or nautical units.
time (UTC)temp
F
wind
direction
speed
MPH
gust
MPH
rain 1hr
in
rain 24hr
in
rain mn
in
humidity
%
barometer
mb
20260504034503 66 320 0.0 2.0 0.00 0.00 0.00 27 1027.4
20260504033624 67 321 0.0 1.0 0.00 0.00 0.00 26 1027.4
20260504032724 67 321 0.0 1.0 0.00 0.00 0.00 25 1027.4
20260504031803 68 321 0.0 3.0 0.00 0.00 0.00 24 1027.4
20260504030903 69 321 0.0 3.0 0.00 0.00 0.00 24 1027.4
20260504030024 70 321 0.0 1.0 0.00 0.00 0.00 24 1027.4
20260504025403 70 321 0.0 1.0 0.00 0.00 0.00 23 1027.4
20260504024503 70 321 0.0 1.0 0.00 0.00 0.00 22 1027.4
20260504023603 71 320 0.0 2.0 0.00 0.00 0.00 22 1027.4
20260504022703 71 320 0.0 1.0 0.00 0.00 0.00 21 1027.4
20260504021803 71 321 0.0 3.0 0.00 0.00 0.00 21 1027.4
20260504020903 71 321 0.0 4.0 0.00 0.00 0.00 21 1027.4
20260504020003 72 321 1.0 3.0 0.00 0.00 0.00 20 1027.4
20260504015424 72 320 1.0 4.0 0.00 0.00 0.00 20 1027.4
20260504014503 72 328 2.0 8.0 0.00 0.00 0.00 20 1027.4
20260504013603 73 327 2.0 5.0 0.00 0.00 0.00 19 1027.4
20260504012704 73 330 2.0 6.0 0.00 0.00 0.00 19 1027.4
20260504011803 73 322 3.0 9.0 0.00 0.00 0.00 19 1027.4
20260504010903 74 340 2.0 8.0 0.00 0.00 0.00 18 1027.4
20260504010004 74 354 3.0 9.0 0.00 0.00 0.00 17 1027.4
20260504005403 74 347 3.0 9.0 0.00 0.00 0.00 17 1027.4
20260504004503 74 357 1.0 6.0 0.00 0.00 0.00 17 1027.4
20260504003603 75 359 2.0 5.0 0.00 0.00 0.00 17 1027.4
20260504002703 75 358 2.0 8.0 0.00 0.00 0.00 16 1027.4
20260504001803 75 344 3.0 10.0 0.00 0.00 0.00 15 1027.4
20260504000924 75 344 3.0 9.0 0.00 0.00 0.00 16 1027.4
20260504000024 76 359 4.0 10.0 0.00 0.00 0.00 14 1027.4
20260503235404 77 357 4.0 10.0 0.00 0.00 0.00 14 1027.4
20260503234503 78 353 2.0 7.0 0.00 0.00 0.00 13 1027.4
20260503233603 80 219 0.0 1.0 0.00 0.00 0.00 13 1027.4
20260503232724 79 219 0.0 1.0 0.00 0.00 0.00 12 1027.4
20260503231803 79 200 1.0 4.0 0.00 0.00 0.00 14 1027.4
20260503230924 79 178 0.0 4.0 0.00 0.00 0.00 16 1027.4
20260503230003 79 213 0.0 2.0 0.00 0.00 0.00 13 1027.4
20260503225403 79 213 0.0 3.0 0.00 0.00 0.00 15 1027.4
20260503224503 78 190 1.0 5.0 0.00 0.00 0.00 14 1027.4
20260503223604 78 112 3.0 9.0 0.00 0.00 0.00 14 1027.4
20260503222703 78 117 3.0 10.0 0.00 0.00 0.00 14 1027.4
20260503221803 78 101 4.0 11.0 0.00 0.00 0.00 12 1027.4
20260503220924 79 88 3.0 10.0 0.00 0.00 0.00 12 1027.4
20260503220003 79 174 1.0 6.0 0.00 0.00 0.00 13 1027.4
20260503215403 79 155 1.0 5.0 0.00 0.00 0.00 15 1027.4
20260503214503 78 37 2.0 10.0 0.00 0.00 0.00 13 1027.4
20260503213603 78 92 4.0 10.0 0.00 0.00 0.00 12 1027.4
20260503212724 79 127 2.0 10.0 0.00 0.00 0.00 13 1027.4
20260503211803 78 122 2.0 8.0 0.00 0.00 0.00 16 1027.4
20260503210903 78 119 4.0 12.0 0.00 0.00 0.00 13 1027.4
20260503210024 78 129 3.0 10.0 0.00 0.00 0.00 14 1027.4
20260503205403 78 133 3.0 11.0 0.00 0.00 0.00 12 1027.4
20260503204503 78 129 3.0 12.0 0.00 0.00 0.00 12 1027.4
20260503203603 78 139 3.0 9.0 0.00 0.00 0.00 12 1027.4
20260503202703 77 116 4.0 13.0 0.00 0.00 0.00 17 1027.4
20260503201803 77 121 4.0 11.0 0.00 0.00 0.00 16 1027.4
20260503200924 77 126 3.0 11.0 0.00 0.00 0.00 15 1027.4
20260503200024 76 126 5.0 15.0 0.00 0.00 0.00 19 1027.4
20260503195403 75 125 4.0 12.0 0.00 0.00 0.00 21 1027.4
20260503194503 75 116 4.0 12.0 0.00 0.00 0.00 18 1027.4
20260503193603 74 112 4.0 12.0 0.00 0.00 0.00 20 1027.4
20260503192703 75 132 4.0 12.0 0.00 0.00 0.00 19 1027.4
20260503191824 75 78 3.0 12.0 0.00 0.00 0.00 20 1027.4
20260503190903 76 153 2.0 7.0 0.00 0.00 0.00 21 1027.4
20260503190004 76 154 3.0 11.0 0.00 0.00 0.00 20 1027.4
20260503185403 76 152 3.0 10.0 0.00 0.00 0.00 22 1027.4
20260503184524 76 140 4.0 10.0 0.00 0.00 0.00 18 1027.4
20260503183603 76 140 3.0 12.0 0.00 0.00 0.00 20 1027.4
20260503182704 76 152 3.0 9.0 0.00 0.00 0.00 23 1027.4
20260503181803 75 146 3.0 14.0 0.00 0.00 0.00 21 1027.4
20260503180903 75 139 3.0 11.0 0.00 0.00 0.00 21 1027.4
20260503180004 74 49 2.0 10.0 0.00 0.00 0.00 24 1027.4
20260503175403 74 167 2.0 10.0 0.00 0.00 0.00 21 1027.4
20260503174503 73 139 1.0 6.0 0.00 0.00 0.00 24 1027.4
20260503173603 73 143 3.0 10.0 0.00 0.00 0.00 25 1027.4
20260503172703 72 147 3.0 12.0 0.00 0.00 0.00 26 1027.4
20260503171803 73 139 3.0 9.0 0.00 0.00 0.00 24 1027.4
20260503170903 72 17 2.0 9.0 0.00 0.00 0.00 26 1027.4
20260503150903 62 12 2.0 10.0 0.00 0.00 0.00 35 1027.4
20260503130903 54 360 0.0 2.0 0.00 0.00 0.00 40 1027.4
20260503080903 55 360 0.0 2.0 0.00 0.00 0.00 37 1027.4
20260503072703 53 360 2.0 5.0 0.00 0.00 0.00 39 1027.4
20260503071824 53 360 1.0 4.0 0.00 0.00 0.00 41 1027.4
20260503070903 54 360 0.0 2.0 0.00 0.00 0.00 43 1027.4
20260503054503 58 360 0.0 3.0 0.00 0.00 0.00 33 1027.4
20260503053603 58 360 0.0 2.0 0.00 0.00 0.00 32 1027.4
20260503052703 59 360 0.0 2.0 0.00 0.00 0.00 32 1027.4
20260503051803 59 360 0.0 1.0 0.00 0.00 0.00 32 1027.4
20260503050903 60 360 0.0 1.0 0.00 0.00 0.00 32 1027.4
20260503050003 60 0 0.0 0.0 0.00 0.00 0.00 32 1027.4
20260503045403 60 360 0.0 2.0 0.00 0.00 0.00 32 1027.4
20260503044503 60 360 0.0 1.0 0.00 0.00 0.00 32 1027.4
20260503043603 61 360 0.0 2.0 0.00 0.00 0.00 32 1027.4
20260503042703 61 0 0.0 0.0 0.00 0.00 0.00 31 1027.4
20260503041824 61 0 0.0 0.0 0.00 0.00 0.00 31 1027.4
20260503040904 62 0 0.0 0.0 0.00 0.00 0.00 30 1027.4
20260503040004 62 0 0.0 0.0 0.00 0.00 0.00 29 1027.4
20260503035403 63 360 0.0 1.0 0.00 0.00 0.00 28 1027.4